Time,TemperatureF,DewpointF,PressureIn,WindDirection,WindDirectionDegrees,WindSpeedMPH,WindSpeedGustMPH,Humidity,HourlyPrecipIn,Conditions,Clouds,dailyrainin,SoftwareType,DateUTC
2013-02-10 00:00:00,36.6,34.5,29.00,North,349,0.0,0.0,92,0.07,,,0.00,WeatherDisplay:10.37,2013-02-10 09:00:00,
2013-02-10 00:05:00,36.5,34.4,29.00,North,349,0.0,0.0,92,0.07,,,0.00,WeatherDisplay:10.37,2013-02-10 09:05:00,
2013-02-10 00:10:00,36.4,34.3,29.00,North,349,0.0,0.0,92,0.07,RA,,0.01,WeatherDisplay:10.37,2013-02-10 09:10:00,
2013-02-10 00:15:00,36.4,34.3,29.01,North,349,0.0,0.0,92,0.07,RA,,0.01,WeatherDisplay:10.37,2013-02-10 09:15:00,
2013-02-10 00:20:00,36.5,34.4,29.01,North,350,0.0,0.0,92,0.07,RA,,0.02,WeatherDisplay:10.37,2013-02-10 09:20:00,
2013-02-10 00:25:00,36.4,34.3,29.01,North,349,0.0,0.0,92,0.08,RA,,0.03,WeatherDisplay:10.37,2013-02-10 09:25:00,
2013-02-10 00:30:00,36.3,34.2,29.01,North,349,0.0,0.0,92,0.08,RA,,0.04,WeatherDisplay:10.37,2013-02-10 09:30:00,
2013-02-10 00:35:00,36.2,34.1,29.01,North,349,0.0,0.0,92,0.08,RA,,0.05,WeatherDisplay:10.37,2013-02-10 09:35:00,
2013-02-10 00:40:00,36.1,34.0,29.01,North,349,0.0,0.0,92,0.09,RA,,0.06,WeatherDisplay:10.37,2013-02-10 09:40:00,
2013-02-10 00:45:00,36.1,34.0,29.01,North,350,0.0,0.0,92,0.09,RA,,0.07,WeatherDisplay:10.37,2013-02-10 09:45:00,
2013-02-10 00:50:00,36.0,33.9,29.01,North,350,0.0,0.0,92,0.10,RA,,0.08,WeatherDisplay:10.37,2013-02-10 09:50:00,
2013-02-10 00:55:00,35.9,33.8,29.01,North,349,0.0,0.0,92,0.09,RA,,0.09,WeatherDisplay:10.37,2013-02-10 09:55:00,
2013-02-10 01:00:00,35.8,33.7,29.01,North,349,0.0,0.0,92,0.09,RA,,0.09,WeatherDisplay:10.37,2013-02-10 10:00:00,
2013-02-10 01:05:00,35.7,33.9,29.01,North,349,0.0,0.0,93,0.10,RA,,0.10,WeatherDisplay:10.37,2013-02-10 10:05:00,
2013-02-10 01:10:00,35.6,33.8,29.01,North,349,0.0,0.0,93,0.10,RA,,0.11,WeatherDisplay:10.37,2013-02-10 10:10:00,
2013-02-10 01:15:00,35.5,33.7,29.01,North,349,0.0,0.0,93,0.10,RA,,0.11,WeatherDisplay:10.37,2013-02-10 10:15:00,
2013-02-10 01:20:00,35.4,33.6,29.01,North,349,0.0,0.0,93,0.10,RA,,0.12,WeatherDisplay:10.37,2013-02-10 10:20:00,
2013-02-10 01:25:00,35.3,33.5,29.00,North,349,0.0,0.0,93,0.09,RA,,0.12,WeatherDisplay:10.37,2013-02-10 10:25:00,
2013-02-10 01:30:00,35.2,33.4,29.01,North,349,0.0,0.0,93,0.09,RA,,0.13,WeatherDisplay:10.37,2013-02-10 10:30:00,
2013-02-10 01:35:00,35.1,33.3,29.01,North,349,0.0,0.0,93,0.08,RA,,0.13,WeatherDisplay:10.37,2013-02-10 10:35:00,
2013-02-10 01:40:00,34.9,33.1,29.01,North,349,0.0,0.0,93,0.08,RA,,0.14,WeatherDisplay:10.37,2013-02-10 10:40:00,
2013-02-10 01:45:00,34.4,32.6,29.01,North,349,0.0,0.0,93,0.07,RA,,0.15,WeatherDisplay:10.37,2013-02-10 10:45:00,
2013-02-10 01:50:00,34.3,32.5,29.01,North,349,0.0,0.0,93,0.07,RA,,0.15,WeatherDisplay:10.37,2013-02-10 10:50:00,
2013-02-10 01:55:00,33.8,32.0,29.01,North,349,0.0,0.0,93,0.08,RA,,0.16,WeatherDisplay:10.37,2013-02-10 10:55:00,
2013-02-10 02:00:00,33.4,31.6,29.01,North,349,0.0,0.0,93,0.07,RA,,0.16,WeatherDisplay:10.37,2013-02-10 11:00:00,
2013-02-10 02:05:00,33.1,31.3,29.01,North,349,0.0,0.0,93,0.06,,,0.16,WeatherDisplay:10.37,2013-02-10 11:05:00,
2013-02-10 02:10:00,32.9,31.1,29.01,North,349,0.0,0.0,93,0.06,RA,,0.17,WeatherDisplay:10.37,2013-02-10 11:10:00,
2013-02-10 02:15:00,32.6,30.8,29.01,North,349,0.0,0.0,93,0.06,RA,,0.17,WeatherDisplay:10.37,2013-02-10 11:15:00,
2013-02-10 02:20:00,32.4,30.6,29.02,North,349,0.0,0.0,93,0.05,CLR,,0.17,WeatherDisplay:10.37,2013-02-10 11:20:00,
2013-02-10 02:25:00,32.2,30.7,29.02,North,349,0.0,0.0,94,0.05,CLR,,0.17,WeatherDisplay:10.37,2013-02-10 11:25:00,
2013-02-10 02:30:00,32.1,30.6,29.02,North,349,0.0,0.0,94,0.04,CLR,,0.17,WeatherDisplay:10.37,2013-02-10 11:30:00,
2013-02-10 02:35:00,32.0,30.5,29.02,North,349,0.0,0.0,94,0.04,CLR,,0.17,WeatherDisplay:10.37,2013-02-10 11:35:00,
2013-02-10 02:40:00,32.0,30.5,29.02,North,349,0.0,0.0,94,0.03,CLR,,0.17,WeatherDisplay:10.37,2013-02-10 11:40:00,
2013-02-10 02:45:00,31.9,30.4,29.02,North,349,0.0,0.0,94,0.03,CLR,,0.17,WeatherDisplay:10.37,2013-02-10 11:45:00,
2013-02-10 02:50:00,31.9,30.4,29.02,North,349,0.0,0.0,94,0.02,CLR,,0.17,WeatherDisplay:10.37,2013-02-10 11:50:00,
2013-02-10 02:55:00,31.9,30.4,29.01,North,350,0.0,0.0,94,0.01,CLR,,0.17,WeatherDisplay:10.37,2013-02-10 11:55:00,
2013-02-10 03:00:00,31.8,30.3,29.01,North,350,0.0,0.0,94,0.01,CLR,,0.17,WeatherDisplay:10.37,2013-02-10 12:00:00,
2013-02-10 03:05:00,31.8,30.3,29.01,North,350,0.0,0.0,94,0.01,CLR,,0.17,WeatherDisplay:10.37,2013-02-10 12:05:00,
2013-02-10 03:10:00,31.8,30.5,29.01,North,349,0.0,0.0,95,0.00,CLR,,0.17,WeatherDisplay:10.37,2013-02-10 12:10:00,
2013-02-10 03:15:00,31.7,30.2,29.01,North,350,0.0,0.0,94,0.00,CLR,,0.17,WeatherDisplay:10.37,2013-02-10 12:15:00,
2013-02-10 03:20:00,31.7,30.2,29.01,North,350,0.0,0.0,94,0.00,CLR,,0.17,WeatherDisplay:10.37,2013-02-10 12:20:00,
2013-02-10 03:25:00,31.7,30.2,29.01,North,350,0.0,0.0,94,0.00,CLR,,0.17,WeatherDisplay:10.37,2013-02-10 12:25:00,
2013-02-10 03:30:00,31.7,30.4,29.01,North,349,0.0,0.0,95,0.00,CLR,,0.17,WeatherDisplay:10.37,2013-02-10 12:30:00,
2013-02-10 03:35:00,31.7,30.4,29.01,North,349,0.0,0.0,95,0.00,CLR,,0.17,WeatherDisplay:10.37,2013-02-10 12:35:00,
2013-02-10 03:40:00,31.7,30.4,29.01,North,351,0.0,0.0,95,0.00,CLR,,0.17,WeatherDisplay:10.37,2013-02-10 12:40:00,
2013-02-10 03:45:00,31.7,30.4,29.01,North,351,0.0,0.0,95,0.01,RA,,0.18,WeatherDisplay:10.37,2013-02-10 12:45:00,
2013-02-10 03:50:00,31.8,30.5,29.01,North,351,0.0,0.0,95,0.01,RA,,0.18,WeatherDisplay:10.37,2013-02-10 12:50:00,
2013-02-10 03:55:00,31.9,30.6,29.01,North,351,0.0,0.0,95,0.02,RA,,0.19,WeatherDisplay:10.37,2013-02-10 12:55:00,
2013-02-10 04:00:00,32.0,30.7,29.01,North,351,0.0,0.0,95,0.02,RA,,0.19,WeatherDisplay:10.37,2013-02-10 13:00:00,
2013-02-10 04:05:00,32.0,30.7,29.01,North,351,0.0,0.0,95,0.03,RA,,0.20,WeatherDisplay:10.37,2013-02-10 13:05:00,
2013-02-10 04:10:00,32.1,30.8,29.01,North,351,0.0,0.0,95,0.03,RA,,0.20,WeatherDisplay:10.37,2013-02-10 13:10:00,
2013-02-10 04:15:00,32.8,31.5,29.01,North,351,0.0,0.0,95,0.04,RA,,0.21,WeatherDisplay:10.37,2013-02-10 13:15:00,
2013-02-10 04:20:00,33.2,31.9,29.01,North,351,0.0,0.0,95,0.04,RA,,0.21,WeatherDisplay:10.37,2013-02-10 13:20:00,
2013-02-10 04:25:00,33.4,32.1,29.01,North,351,0.0,0.0,95,0.05,RA,,0.22,WeatherDisplay:10.37,2013-02-10 13:25:00,
2013-02-10 04:30:00,33.7,32.4,29.01,North,351,0.0,0.0,95,0.06,RA,,0.23,WeatherDisplay:10.37,2013-02-10 13:30:00,
2013-02-10 04:35:00,33.9,32.6,29.02,North,351,0.0,0.0,95,0.07,RA,,0.24,WeatherDisplay:10.37,2013-02-10 13:35:00,
2013-02-10 04:40:00,34.0,32.7,29.02,North,351,0.0,0.0,95,0.08,RA,,0.25,WeatherDisplay:10.37,2013-02-10 13:40:00,
2013-02-10 04:45:00,34.1,32.8,29.02,North,351,0.0,0.0,95,0.08,RA,,0.26,WeatherDisplay:10.37,2013-02-10 13:45:00,
2013-02-10 04:50:00,34.3,33.0,29.02,North,351,0.0,0.0,95,0.09,RA,,0.27,WeatherDisplay:10.37,2013-02-10 13:50:00,
2013-02-10 04:55:00,34.4,33.1,29.02,North,351,0.0,0.0,95,0.08,RA,,0.27,WeatherDisplay:10.37,2013-02-10 13:55:00,
2013-02-10 05:00:00,34.4,33.1,29.03,North,351,0.0,0.0,95,0.09,RA,,0.28,WeatherDisplay:10.37,2013-02-10 14:00:00,
2013-02-10 05:05:00,34.5,33.2,29.03,North,351,0.0,0.0,95,0.09,RA,,0.29,WeatherDisplay:10.37,2013-02-10 14:05:00,
2013-02-10 05:10:00,34.7,33.4,29.03,North,351,0.0,0.0,95,0.10,RA,,0.30,WeatherDisplay:10.37,2013-02-10 14:10:00,
2013-02-10 05:15:00,34.8,33.5,29.04,North,351,0.0,0.0,95,0.10,RA,,0.31,WeatherDisplay:10.37,2013-02-10 14:15:00,
2013-02-10 05:20:00,35.0,33.7,29.04,North,351,0.0,0.0,95,0.10,RA,,0.31,WeatherDisplay:10.37,2013-02-10 14:20:00,
2013-02-10 05:25:00,35.1,33.8,29.04,North,351,0.0,0.0,95,0.10,RA,,0.32,WeatherDisplay:10.37,2013-02-10 14:25:00,
2013-02-10 05:30:00,35.2,33.9,29.05,North,351,0.0,0.0,95,0.10,RA,,0.33,WeatherDisplay:10.37,2013-02-10 14:30:00,
2013-02-10 05:35:00,35.2,33.6,29.05,North,351,0.0,0.0,94,0.10,RA,,0.34,WeatherDisplay:10.37,2013-02-10 14:35:00,
2013-02-10 05:40:00,35.4,34.1,29.06,North,349,0.0,0.0,95,0.10,RA,,0.35,WeatherDisplay:10.37,2013-02-10 14:40:00,
2013-02-10 05:45:00,35.4,33.8,29.06,North,349,0.0,0.0,94,0.09,RA,,0.35,WeatherDisplay:10.37,2013-02-10 14:45:00,
2013-02-10 05:50:00,35.5,33.9,29.06,North,350,0.0,0.0,94,0.09,RA,,0.36,WeatherDisplay:10.37,2013-02-10 14:50:00,
2013-02-10 05:55:00,35.6,34.0,29.07,North,350,0.0,0.0,94,0.10,RA,,0.37,WeatherDisplay:10.37,2013-02-10 14:55:00,
2013-02-10 06:00:00,35.5,33.9,29.07,North,349,0.0,0.0,94,0.09,RA,,0.37,WeatherDisplay:10.37,2013-02-10 15:00:00,
2013-02-10 06:05:00,35.6,34.0,29.07,North,349,0.0,0.0,94,0.09,RA,,0.38,WeatherDisplay:10.37,2013-02-10 15:05:00,
2013-02-10 06:10:00,35.6,34.0,29.08,North,350,0.0,0.0,94,0.08,RA,,0.38,WeatherDisplay:10.37,2013-02-10 15:10:00,
2013-02-10 06:15:00,35.6,34.0,29.08,North,349,0.0,0.0,94,0.08,RA,,0.39,WeatherDisplay:10.37,2013-02-10 15:15:00,
2013-02-10 06:20:00,35.6,34.0,29.09,North,349,0.0,0.0,94,0.08,RA,,0.39,WeatherDisplay:10.37,2013-02-10 15:20:00,
2013-02-10 06:25:00,35.5,33.9,29.09,North,349,0.0,0.0,94,0.07,,,0.39,WeatherDisplay:10.37,2013-02-10 15:25:00,
2013-02-10 06:30:00,35.5,33.9,29.10,North,349,0.0,0.0,94,0.07,RA,,0.40,WeatherDisplay:10.37,2013-02-10 15:30:00,
2013-02-10 06:35:00,35.4,33.6,29.10,North,349,0.0,0.0,93,0.06,RA,,0.40,WeatherDisplay:10.37,2013-02-10 15:35:00,
2013-02-10 06:40:00,35.3,33.7,29.11,North,349,0.0,0.0,94,0.05,,,0.40,WeatherDisplay:10.37,2013-02-10 15:40:00,
2013-02-10 06:45:00,35.2,33.4,29.11,North,349,0.0,0.0,93,0.06,RA,,0.41,WeatherDisplay:10.37,2013-02-10 15:45:00,
2013-02-10 06:50:00,35.2,33.6,29.11,North,349,0.0,0.0,94,0.05,RA,,0.41,WeatherDisplay:10.37,2013-02-10 15:50:00,
2013-02-10 06:55:00,35.2,33.6,29.12,North,349,0.0,0.0,94,0.04,CLR,,0.41,WeatherDisplay:10.37,2013-02-10 15:55:00,
2013-02-10 07:00:00,35.2,33.4,29.12,North,349,0.0,0.0,93,0.04,CLR,,0.41,WeatherDisplay:10.37,2013-02-10 16:00:00,
2013-02-10 07:05:00,35.2,33.4,29.13,North,349,0.0,0.0,93,0.04,RA,,0.42,WeatherDisplay:10.37,2013-02-10 16:05:00,
2013-02-10 07:10:00,35.2,33.4,29.13,North,349,0.0,0.0,93,0.04,RA,,0.42,WeatherDisplay:10.37,2013-02-10 16:10:00,
2013-02-10 07:15:00,35.2,33.4,29.14,North,349,0.0,0.0,93,0.04,RA,,0.43,WeatherDisplay:10.37,2013-02-10 16:15:00,
2013-02-10 07:20:00,35.3,33.5,29.14,North,349,0.0,0.0,93,0.04,RA,,0.43,WeatherDisplay:10.37,2013-02-10 16:20:00,
2013-02-10 07:25:00,35.3,33.5,29.14,North,349,0.0,0.0,93,0.04,,,0.43,WeatherDisplay:10.37,2013-02-10 16:25:00,
2013-02-10 07:30:00,35.3,33.5,29.15,North,349,0.0,0.0,93,0.03,CLR,,0.44,WeatherDisplay:10.37,2013-02-10 16:30:00,
2013-02-10 07:35:00,35.3,33.5,29.15,North,349,0.0,0.0,93,0.04,RA,,0.44,WeatherDisplay:10.37,2013-02-10 16:35:00,
2013-02-10 07:40:00,35.4,33.6,29.15,North,349,0.0,0.0,93,0.04,RA,,0.44,WeatherDisplay:10.37,2013-02-10 16:40:00,
2013-02-10 07:45:00,35.5,33.7,29.16,North,349,0.0,0.0,93,0.04,RA,,0.45,WeatherDisplay:10.37,2013-02-10 16:45:00,
2013-02-10 07:50:00,35.5,33.7,29.16,North,349,0.0,0.0,93,0.04,RA,,0.45,WeatherDisplay:10.37,2013-02-10 16:50:00,
2013-02-10 07:55:00,35.5,33.7,29.17,North,349,0.0,0.0,93,0.04,,,0.45,WeatherDisplay:10.37,2013-02-10 16:55:00,
2013-02-10 08:00:00,35.5,33.7,29.17,North,349,0.0,0.0,93,0.04,CLR,,0.45,WeatherDisplay:10.37,2013-02-10 17:00:00,
2013-02-10 08:05:00,35.5,33.7,29.17,North,349,0.0,0.0,93,0.03,CLR,,0.45,WeatherDisplay:10.37,2013-02-10 17:05:00,
2013-02-10 08:10:00,35.6,33.8,29.18,North,349,0.0,0.0,93,0.04,RA,,0.46,WeatherDisplay:10.37,2013-02-10 17:10:00,
2013-02-10 08:15:00,35.6,33.5,29.18,North,349,0.0,0.0,92,0.03,RA,,0.46,WeatherDisplay:10.37,2013-02-10 17:15:00,
2013-02-10 08:20:00,35.7,33.6,29.19,North,349,0.0,0.0,92,0.03,CLR,,0.46,WeatherDisplay:10.37,2013-02-10 17:20:00,
2013-02-10 08:25:00,35.7,33.6,29.19,North,349,0.0,0.0,92,0.04,RA,,0.47,WeatherDisplay:10.37,2013-02-10 17:25:00,
2013-02-10 08:30:00,35.8,33.4,29.20,North,349,0.0,0.0,91,0.04,RA,,0.47,WeatherDisplay:10.37,2013-02-10 17:30:00,
2013-02-10 08:35:00,35.8,33.4,29.20,North,349,0.0,0.0,91,0.03,CLR,,0.47,WeatherDisplay:10.37,2013-02-10 17:35:00,
2013-02-10 08:40:00,35.8,33.4,29.20,North,349,0.0,0.0,91,0.03,CLR,,0.47,WeatherDisplay:10.37,2013-02-10 17:40:00,
2013-02-10 08:45:00,35.9,33.5,29.21,North,349,0.0,0.0,91,0.02,CLR,,0.47,WeatherDisplay:10.37,2013-02-10 17:45:00,
2013-02-10 08:50:00,35.8,33.4,29.21,North,349,0.0,0.0,91,0.02,CLR,,0.47,WeatherDisplay:10.37,2013-02-10 17:50:00,
2013-02-10 08:55:00,35.8,33.4,29.22,North,349,0.0,0.0,91,0.03,RA,,0.48,WeatherDisplay:10.37,2013-02-10 17:55:00,
2013-02-10 09:00:00,35.8,33.4,29.22,North,349,0.0,0.0,91,0.03,RA,,0.48,WeatherDisplay:10.37,2013-02-10 18:00:00,
2013-02-10 09:05:00,35.7,33.3,29.22,NNW,348,0.0,0.0,91,0.03,CLR,,0.48,WeatherDisplay:10.37,2013-02-10 18:05:00,
2013-02-10 09:10:00,35.8,33.2,29.23,NNW,348,0.0,0.0,90,0.02,CLR,,0.48,WeatherDisplay:10.37,2013-02-10 18:10:00,
2013-02-10 09:15:00,35.8,33.2,29.23,North,349,0.0,0.0,90,0.02,CLR,,0.49,WeatherDisplay:10.37,2013-02-10 18:15:00,
2013-02-10 09:20:00,35.9,33.5,29.23,North,349,0.0,0.0,91,0.03,RA,,0.49,WeatherDisplay:10.37,2013-02-10 18:20:00,
2013-02-10 09:25:00,35.7,33.6,29.24,NNW,348,0.0,0.0,92,0.02,RA,,0.49,WeatherDisplay:10.37,2013-02-10 18:25:00,
2013-02-10 09:30:00,35.7,33.6,29.24,North,349,0.0,0.0,92,0.02,CLR,,0.49,WeatherDisplay:10.37,2013-02-10 18:30:00,
2013-02-10 09:35:00,35.6,33.5,29.24,North,349,0.0,0.0,92,0.02,CLR,,0.49,WeatherDisplay:10.37,2013-02-10 18:35:00,
2013-02-10 09:40:00,35.4,33.3,29.25,NNW,348,0.0,0.0,92,0.02,CLR,,0.49,WeatherDisplay:10.37,2013-02-10 18:40:00,
2013-02-10 09:45:00,35.4,33.3,29.25,NNW,348,0.0,0.0,92,0.02,CLR,,0.49,WeatherDisplay:10.37,2013-02-10 18:45:00,
2013-02-10 09:50:00,35.5,33.4,29.26,North,349,0.0,0.0,92,0.03,RA,,0.50,WeatherDisplay:10.37,2013-02-10 18:50:00,
2013-02-10 09:55:00,35.5,33.4,29.26,North,349,0.0,0.0,92,0.02,RA,,0.50,WeatherDisplay:10.37,2013-02-10 18:55:00,
2013-02-10 10:00:00,35.5,33.4,29.26,NNW,348,0.0,0.0,92,0.02,CLR,,0.50,WeatherDisplay:10.37,2013-02-10 19:00:00,
2013-02-10 10:05:00,35.6,33.5,29.27,NNW,348,0.0,0.0,92,0.02,CLR,,0.50,WeatherDisplay:10.37,2013-02-10 19:05:00,
2013-02-10 10:10:00,35.7,33.6,29.27,North,349,0.0,0.0,92,0.03,RA,,0.51,WeatherDisplay:10.37,2013-02-10 19:10:00,
2013-02-10 10:15:00,35.7,33.6,29.27,NNW,348,0.0,0.0,92,0.03,RA,,0.51,WeatherDisplay:10.37,2013-02-10 19:15:00,
2013-02-10 10:20:00,35.9,33.8,29.28,North,349,0.0,0.0,92,0.02,CLR,,0.51,WeatherDisplay:10.37,2013-02-10 19:20:00,
2013-02-10 10:25:00,35.9,33.5,29.28,North,349,0.0,0.0,91,0.02,CLR,,0.51,WeatherDisplay:10.37,2013-02-10 19:25:00,
2013-02-10 10:30:00,35.9,33.5,29.28,North,349,0.0,0.0,91,0.02,CLR,,0.51,WeatherDisplay:10.37,2013-02-10 19:30:00,
2013-02-10 10:35:00,35.9,33.5,29.29,North,349,0.0,0.0,91,0.03,RA,,0.52,WeatherDisplay:10.37,2013-02-10 19:35:00,
2013-02-10 10:40:00,35.8,33.4,29.29,North,349,0.0,0.0,91,0.03,RA,,0.52,WeatherDisplay:10.37,2013-02-10 19:40:00,
2013-02-10 10:45:00,35.8,33.4,29.30,North,349,0.0,0.0,91,0.03,CLR,,0.53,WeatherDisplay:10.37,2013-02-10 19:45:00,
2013-02-10 10:50:00,35.9,33.3,29.30,North,349,0.0,0.0,90,0.03,RA,,0.53,WeatherDisplay:10.37,2013-02-10 19:50:00,
2013-02-10 10:55:00,36.1,33.7,29.31,NNW,348,0.0,0.0,91,0.03,RA,,0.53,WeatherDisplay:10.37,2013-02-10 19:55:00,
2013-02-10 11:00:00,36.1,33.2,29.31,North,349,0.0,0.0,89,0.03,CLR,,0.53,WeatherDisplay:10.37,2013-02-10 20:00:00,
2013-02-10 11:05:00,36.2,33.0,29.31,NNW,348,0.0,0.0,88,0.03,CLR,,0.53,WeatherDisplay:10.37,2013-02-10 20:05:00,
2013-02-10 11:10:00,36.3,33.1,29.32,NNW,347,0.0,0.0,88,0.02,CLR,,0.53,WeatherDisplay:10.37,2013-02-10 20:10:00,
2013-02-10 11:15:00,36.2,33.3,29.33,NNW,346,0.0,0.0,89,0.03,RA,,0.54,WeatherDisplay:10.37,2013-02-10 20:15:00,
2013-02-10 11:20:00,35.9,33.0,29.33,NNW,347,0.0,0.0,89,0.03,RA,,0.54,WeatherDisplay:10.37,2013-02-10 20:20:00,
2013-02-10 11:25:00,35.7,33.1,29.33,NNW,347,0.0,0.0,90,0.03,,,0.54,WeatherDisplay:10.37,2013-02-10 20:25:00,
2013-02-10 11:30:00,35.6,33.0,29.33,NNW,347,0.0,0.0,90,0.03,CLR,,0.54,WeatherDisplay:10.37,2013-02-10 20:30:00,
2013-02-10 11:35:00,35.7,33.1,29.34,NNW,347,0.0,0.0,90,0.02,CLR,,0.54,WeatherDisplay:10.37,2013-02-10 20:35:00,
2013-02-10 11:40:00,35.7,33.1,29.34,NNW,347,0.0,0.0,90,0.03,RA,,0.55,WeatherDisplay:10.37,2013-02-10 20:40:00,
2013-02-10 11:45:00,35.7,33.1,29.35,NNW,347,0.0,0.0,90,0.03,RA,,0.55,WeatherDisplay:10.37,2013-02-10 20:45:00,
2013-02-10 11:50:00,35.7,33.1,29.35,NNW,347,0.0,0.0,90,0.02,CLR,,0.55,WeatherDisplay:10.37,2013-02-10 20:50:00,
2013-02-10 11:55:00,35.5,32.9,29.35,NNW,347,0.0,0.0,90,0.02,CLR,,0.55,WeatherDisplay:10.37,2013-02-10 20:55:00,
2013-02-10 12:00:00,35.5,32.9,29.36,NNW,347,0.0,0.0,90,0.02,CLR,,0.55,WeatherDisplay:10.37,2013-02-10 21:00:00,
2013-02-10 12:05:00,35.6,32.7,29.36,NNW,347,0.0,0.0,89,0.02,CLR,,0.55,WeatherDisplay:10.37,2013-02-10 21:05:00,
2013-02-10 12:10:00,35.7,32.8,29.36,NNW,347,0.0,0.0,89,0.02,CLR,,0.55,WeatherDisplay:10.37,2013-02-10 21:10:00,
2013-02-10 12:15:00,35.9,33.0,29.36,NNW,347,0.0,0.0,89,0.02,RA,,0.56,WeatherDisplay:10.37,2013-02-10 21:15:00,
2013-02-10 12:20:00,36.0,33.1,29.36,NNW,347,0.0,0.0,89,0.02,RA,,0.56,WeatherDisplay:10.37,2013-02-10 21:20:00,
2013-02-10 12:25:00,36.2,33.3,29.37,NNW,347,0.0,0.0,89,0.02,CLR,,0.56,WeatherDisplay:10.37,2013-02-10 21:25:00,
2013-02-10 12:30:00,36.3,33.1,29.37,NNW,347,0.0,0.0,88,0.02,CLR,,0.56,WeatherDisplay:10.37,2013-02-10 21:30:00,
2013-02-10 12:35:00,36.4,32.9,29.37,NNW,347,0.0,0.0,87,0.02,CLR,,0.56,WeatherDisplay:10.37,2013-02-10 21:35:00,
2013-02-10 12:40:00,36.3,32.5,29.37,NNW,347,0.0,0.0,86,0.01,CLR,,0.56,WeatherDisplay:10.37,2013-02-10 21:40:00,
2013-02-10 12:45:00,36.4,32.6,29.37,NNW,347,0.0,0.0,86,0.02,RA,,0.57,WeatherDisplay:10.37,2013-02-10 21:45:00,
2013-02-10 12:50:00,36.4,32.6,29.37,NNW,347,0.0,0.0,86,0.02,RA,,0.57,WeatherDisplay:10.37,2013-02-10 21:50:00,
2013-02-10 12:55:00,36.4,32.3,29.37,NNW,347,0.0,0.0,85,0.02,CLR,,0.57,WeatherDisplay:10.37,2013-02-10 21:55:00,
2013-02-10 13:00:00,36.4,32.3,29.37,NNW,347,0.0,0.0,85,0.02,CLR,,0.57,WeatherDisplay:10.37,2013-02-10 22:00:00,
2013-02-10 13:05:00,36.4,32.0,29.37,NNW,347,0.0,0.0,84,0.02,CLR,,0.57,WeatherDisplay:10.37,2013-02-10 22:05:00,
2013-02-10 13:10:00,36.3,31.9,29.37,NNW,347,0.0,0.0,84,0.02,CLR,,0.57,WeatherDisplay:10.37,2013-02-10 22:10:00,
2013-02-10 13:15:00,36.2,31.8,29.38,NNW,347,0.0,0.0,84,0.01,CLR,,0.57,WeatherDisplay:10.37,2013-02-10 22:15:00,
2013-02-10 13:20:00,36.1,31.7,29.38,NNW,347,0.0,0.0,84,0.01,CLR,,0.57,WeatherDisplay:10.37,2013-02-10 22:20:00,
2013-02-10 13:25:00,36.1,31.7,29.38,NNW,347,0.0,0.0,84,0.01,CLR,,0.57,WeatherDisplay:10.37,2013-02-10 22:25:00,
2013-02-10 13:30:00,36.0,31.9,29.38,NNW,347,0.0,0.0,85,0.01,CLR,,0.57,WeatherDisplay:10.37,2013-02-10 22:30:00,
2013-02-10 13:35:00,35.9,31.8,29.38,NNW,347,0.0,0.0,85,0.01,CLR,,0.58,WeatherDisplay:10.37,2013-02-10 22:35:00,
2013-02-10 13:40:00,35.7,31.3,29.38,NNW,347,0.0,0.0,84,0.02,RA,,0.58,WeatherDisplay:10.37,2013-02-10 22:40:00,
2013-02-10 13:45:00,35.6,31.2,29.38,NNW,347,0.0,0.0,84,0.01,RA,,0.58,WeatherDisplay:10.37,2013-02-10 22:45:00,
2013-02-10 13:50:00,35.6,31.2,29.38,NNW,347,0.0,0.0,84,0.01,CLR,,0.58,WeatherDisplay:10.37,2013-02-10 22:50:00,
2013-02-10 13:55:00,35.6,30.9,29.38,NNW,347,0.0,0.0,83,0.01,CLR,,0.58,WeatherDisplay:10.37,2013-02-10 22:55:00,
2013-02-10 14:00:00,35.6,30.6,29.38,NNW,347,0.0,0.0,82,0.01,CLR,,0.58,WeatherDisplay:10.37,2013-02-10 23:00:00,
2013-02-10 14:05:00,35.3,30.9,29.39,NNW,347,0.0,0.0,84,0.01,CLR,,0.58,WeatherDisplay:10.37,2013-02-10 23:05:00,
2013-02-10 14:10:00,34.7,30.9,29.39,NNW,347,0.0,0.0,86,0.01,CLR,,0.58,WeatherDisplay:10.37,2013-02-10 23:10:00,
2013-02-10 14:15:00,34.2,31.0,29.39,NNW,347,0.0,0.0,88,0.01,CLR,,0.58,WeatherDisplay:10.37,2013-02-10 23:15:00,
2013-02-10 14:20:00,33.8,30.9,29.40,NNW,348,0.0,0.0,89,0.01,CLR,,0.58,WeatherDisplay:10.37,2013-02-10 23:20:00,
2013-02-10 14:25:00,33.7,31.1,29.40,NNW,348,0.0,0.0,90,0.01,CLR,,0.58,WeatherDisplay:10.37,2013-02-10 23:25:00,
2013-02-10 14:30:00,33.5,30.9,29.40,NNW,348,0.0,0.0,90,0.01,CLR,,0.58,WeatherDisplay:10.37,2013-02-10 23:30:00,
2013-02-10 14:35:00,33.5,31.2,29.40,NNW,348,0.0,0.0,91,0.02,RA,,0.59,WeatherDisplay:10.37,2013-02-10 23:35:00,
2013-02-10 14:40:00,33.6,31.3,29.40,NNW,348,0.0,0.0,91,0.01,RA,,0.59,WeatherDisplay:10.37,2013-02-10 23:40:00,
2013-02-10 14:45:00,33.7,31.6,29.40,NNW,348,0.0,0.0,92,0.01,CLR,,0.59,WeatherDisplay:10.37,2013-02-10 23:45:00,
2013-02-10 14:50:00,33.6,31.5,29.40,NNW,348,0.0,0.0,92,0.01,CLR,,0.59,WeatherDisplay:10.37,2013-02-10 23:50:00,
2013-02-10 14:55:00,33.4,31.3,29.40,NNW,348,0.0,0.0,92,0.01,CLR,,0.59,WeatherDisplay:10.37,2013-02-10 23:55:00,
2013-02-10 15:00:00,33.4,31.3,29.40,NNW,348,0.0,0.0,92,0.01,CLR,,0.59,WeatherDisplay:10.37,2013-02-11 00:00:00,
2013-02-10 15:05:00,33.4,31.3,29.40,NNW,348,0.0,0.0,92,0.02,RA,,0.60,WeatherDisplay:10.37,2013-02-11 00:05:00,
2013-02-10 15:10:00,33.4,31.3,29.40,NNW,348,0.0,0.0,92,0.02,RA,,0.60,WeatherDisplay:10.37,2013-02-11 00:10:00,
2013-02-10 15:15:00,33.5,31.4,29.40,NNW,348,0.0,0.0,92,0.02,,,0.60,WeatherDisplay:10.37,2013-02-11 00:15:00,
2013-02-10 15:20:00,33.6,31.5,29.40,NNW,348,0.0,0.0,92,0.02,CLR,,0.60,WeatherDisplay:10.37,2013-02-11 00:20:00,
2013-02-10 15:25:00,33.4,31.3,29.40,NNW,347,0.0,0.0,92,0.02,CLR,,0.60,WeatherDisplay:10.37,2013-02-11 00:25:00,
2013-02-10 15:30:00,33.3,31.5,29.40,NNW,348,0.0,0.0,93,0.02,CLR,,0.60,WeatherDisplay:10.37,2013-02-11 00:30:00,
2013-02-10 15:35:00,33.2,31.4,29.40,NNW,348,0.0,0.0,93,0.01,CLR,,0.60,WeatherDisplay:10.37,2013-02-11 00:35:00,
2013-02-10 15:40:00,33.2,31.4,29.40,NNW,348,0.0,0.0,93,0.01,CLR,,0.60,WeatherDisplay:10.37,2013-02-11 00:40:00,
2013-02-10 15:45:00,33.2,31.4,29.40,NNW,348,0.0,0.0,93,0.01,CLR,,0.60,WeatherDisplay:10.37,2013-02-11 00:45:00,
2013-02-10 15:50:00,33.3,31.5,29.40,NNW,347,0.0,0.0,93,0.01,CLR,,0.60,WeatherDisplay:10.37,2013-02-11 00:50:00,
2013-02-10 15:55:00,33.5,31.4,29.41,NNW,348,0.0,0.0,92,0.01,CLR,,0.60,WeatherDisplay:10.37,2013-02-11 00:55:00,
2013-02-10 16:00:00,33.6,31.5,29.41,NNW,348,0.0,0.0,92,0.02,RA,,0.61,WeatherDisplay:10.37,2013-02-11 01:00:00,
2013-02-10 16:05:00,33.6,31.5,29.41,NNW,347,0.0,0.0,92,0.01,RA,,0.61,WeatherDisplay:10.37,2013-02-11 01:05:00,
2013-02-10 16:10:00,33.5,31.4,29.41,NNW,347,0.0,0.0,92,0.01,,,0.61,WeatherDisplay:10.37,2013-02-11 01:10:00,
2013-02-10 16:15:00,33.4,31.3,29.41,NNW,347,0.0,0.0,92,0.01,CLR,,0.61,WeatherDisplay:10.37,2013-02-11 01:15:00,
2013-02-10 16:20:00,33.2,31.1,29.41,NNW,347,0.0,0.0,92,0.01,CLR,,0.61,WeatherDisplay:10.37,2013-02-11 01:20:00,
2013-02-10 16:25:00,33.0,31.2,29.41,NNW,347,0.0,0.0,93,0.01,CLR,,0.61,WeatherDisplay:10.37,2013-02-11 01:25:00,
2013-02-10 16:30:00,32.9,31.1,29.41,NNW,347,0.0,0.0,93,0.01,CLR,,0.61,WeatherDisplay:10.37,2013-02-11 01:30:00,
2013-02-10 16:35:00,32.8,31.0,29.41,NNW,347,0.0,0.0,93,0.01,CLR,,0.61,WeatherDisplay:10.37,2013-02-11 01:35:00,
2013-02-10 16:40:00,32.8,31.0,29.41,NNW,347,0.0,0.0,93,0.01,CLR,,0.61,WeatherDisplay:10.37,2013-02-11 01:40:00,
2013-02-10 16:45:00,32.6,30.8,29.41,NNW,347,0.0,0.0,93,0.01,CLR,,0.61,WeatherDisplay:10.37,2013-02-11 01:45:00,
2013-02-10 16:50:00,32.4,30.9,29.41,NNW,347,0.0,0.0,94,0.01,CLR,,0.61,WeatherDisplay:10.37,2013-02-11 01:50:00,
2013-02-10 16:55:00,32.2,30.7,29.41,NNW,347,0.0,0.0,94,0.01,CLR,,0.61,WeatherDisplay:10.37,2013-02-11 01:55:00,
2013-02-10 17:00:00,32.1,30.6,29.41,NNW,347,0.0,0.0,94,0.00,CLR,,0.61,WeatherDisplay:10.37,2013-02-11 02:00:00,
2013-02-10 17:05:00,32.1,30.6,29.41,NNW,347,0.0,0.0,94,0.00,CLR,,0.61,WeatherDisplay:10.37,2013-02-11 02:05:00,
2013-02-10 17:10:00,32.1,30.6,29.41,NNW,347,0.0,0.0,94,0.00,CLR,,0.61,WeatherDisplay:10.37,2013-02-11 02:10:00,
2013-02-10 17:15:00,32.1,30.6,29.41,NNW,347,0.0,0.0,94,0.00,CLR,,0.61,WeatherDisplay:10.37,2013-02-11 02:15:00,
2013-02-10 17:20:00,32.2,30.7,29.41,NNW,347,0.0,0.0,94,0.00,CLR,,0.61,WeatherDisplay:10.37,2013-02-11 02:20:00,
2013-02-10 17:25:00,32.2,30.7,29.41,NNW,347,0.0,0.0,94,0.00,CLR,,0.61,WeatherDisplay:10.37,2013-02-11 02:25:00,
2013-02-10 17:30:00,32.2,30.7,29.41,NNW,347,0.0,0.0,94,0.00,CLR,,0.61,WeatherDisplay:10.37,2013-02-11 02:30:00,
2013-02-10 17:35:00,32.3,30.8,29.41,NNW,347,0.0,0.0,94,0.00,CLR,,0.61,WeatherDisplay:10.37,2013-02-11 02:35:00,
2013-02-10 17:40:00,32.3,30.8,29.42,NNW,347,0.0,0.0,94,0.00,CLR,,0.61,WeatherDisplay:10.37,2013-02-11 02:40:00,
2013-02-10 17:45:00,32.3,30.8,29.42,NNW,347,0.0,0.0,94,0.00,CLR,,0.61,WeatherDisplay:10.37,2013-02-11 02:45:00,
2013-02-10 17:50:00,32.3,30.8,29.42,NNW,347,0.0,0.0,94,0.00,CLR,,0.61,WeatherDisplay:10.37,2013-02-11 02:50:00,
2013-02-10 17:55:00,32.2,30.7,29.42,NNW,347,0.0,0.0,94,0.00,CLR,,0.61,WeatherDisplay:10.37,2013-02-11 02:55:00,
2013-02-10 18:00:00,32.1,30.6,29.42,NNW,347,0.0,0.0,94,0.00,CLR,,0.61,WeatherDisplay:10.37,2013-02-11 03:00:00,
2013-02-10 18:05:00,32.1,30.6,29.42,NNW,347,0.0,0.0,94,0.00,CLR,,0.61,WeatherDisplay:10.37,2013-02-11 03:05:00,
2013-02-10 18:10:00,32.1,30.6,29.42,NNW,347,0.0,0.0,94,0.00,CLR,,0.61,WeatherDisplay:10.37,2013-02-11 03:10:00,
2013-02-10 18:15:00,32.1,30.6,29.42,NNW,347,0.0,0.0,94,0.00,CLR,,0.61,WeatherDisplay:10.37,2013-02-11 03:15:00,
2013-02-10 18:20:00,32.1,30.6,29.42,NNW,347,0.0,0.0,94,0.00,CLR,,0.61,WeatherDisplay:10.37,2013-02-11 03:20:00,
2013-02-10 18:25:00,32.1,30.6,29.42,NNW,347,0.0,0.0,94,0.00,CLR,,0.61,WeatherDisplay:10.37,2013-02-11 03:25:00,
2013-02-10 18:30:00,32.1,30.6,29.42,NNW,347,0.0,0.0,94,0.00,CLR,,0.61,WeatherDisplay:10.37,2013-02-11 03:30:00,
2013-02-10 18:35:00,32.0,30.5,29.42,NNW,347,0.0,0.0,94,0.00,CLR,,0.61,WeatherDisplay:10.37,2013-02-11 03:35:00,
2013-02-10 18:40:00,32.0,30.5,29.42,NNW,347,0.0,0.0,94,0.00,CLR,,0.61,WeatherDisplay:10.37,2013-02-11 03:40:00,
2013-02-10 18:45:00,32.0,30.5,29.42,NNW,347,0.0,0.0,94,0.00,CLR,,0.61,WeatherDisplay:10.37,2013-02-11 03:45:00,
2013-02-10 18:50:00,31.9,30.4,29.42,NNW,347,0.0,0.0,94,0.00,CLR,,0.61,WeatherDisplay:10.37,2013-02-11 03:50:00,
2013-02-10 18:55:00,31.9,30.4,29.42,NNW,347,0.0,0.0,94,0.00,CLR,,0.61,WeatherDisplay:10.37,2013-02-11 03:55:00,
2013-02-10 19:00:00,31.9,30.4,29.42,NNW,347,0.0,0.0,94,0.01,RA,,0.62,WeatherDisplay:10.37,2013-02-11 04:00:00,
2013-02-10 19:05:00,31.9,30.6,29.42,NNW,347,0.0,0.0,95,0.01,RA,,0.62,WeatherDisplay:10.37,2013-02-11 04:05:00,
2013-02-10 19:10:00,31.9,30.6,29.43,NNW,347,0.0,0.0,95,0.01,CLR,,0.62,WeatherDisplay:10.37,2013-02-11 04:10:00,
2013-02-10 19:15:00,31.9,30.6,29.43,NNW,347,0.0,0.0,95,0.01,CLR,,0.62,WeatherDisplay:10.37,2013-02-11 04:15:00,
2013-02-10 19:20:00,31.9,30.6,29.43,NNW,347,0.0,0.0,95,0.01,CLR,,0.62,WeatherDisplay:10.37,2013-02-11 04:20:00,
2013-02-10 19:25:00,31.9,30.6,29.43,NNW,347,0.0,0.0,95,0.01,CLR,,0.62,WeatherDisplay:10.37,2013-02-11 04:25:00,
2013-02-10 19:30:00,31.9,30.6,29.43,NNW,347,0.0,0.0,95,0.01,CLR,,0.62,WeatherDisplay:10.37,2013-02-11 04:30:00,
2013-02-10 19:35:00,31.9,30.6,29.43,NNW,347,0.0,0.0,95,0.01,CLR,,0.62,WeatherDisplay:10.37,2013-02-11 04:35:00,
2013-02-10 19:40:00,31.8,30.5,29.43,NNW,347,0.0,0.0,95,0.01,CLR,,0.62,WeatherDisplay:10.37,2013-02-11 04:40:00,
2013-02-10 19:45:00,31.9,30.4,29.43,NNW,347,0.0,0.0,94,0.01,CLR,,0.62,WeatherDisplay:10.37,2013-02-11 04:45:00,
2013-02-10 19:50:00,31.8,30.5,29.43,NNW,347,0.0,0.0,95,0.01,CLR,,0.62,WeatherDisplay:10.37,2013-02-11 04:50:00,
2013-02-10 19:55:00,31.8,30.5,29.43,NNW,347,0.0,0.0,95,0.01,CLR,,0.62,WeatherDisplay:10.37,2013-02-11 04:55:00,
2013-02-10 20:00:00,31.8,30.5,29.43,NNW,347,0.0,0.0,95,0.00,CLR,,0.62,WeatherDisplay:10.37,2013-02-11 05:00:00,
2013-02-10 20:05:00,31.8,30.5,29.43,NNW,347,0.0,0.0,95,0.00,CLR,,0.62,WeatherDisplay:10.37,2013-02-11 05:05:00,
2013-02-10 20:10:00,31.7,30.4,29.43,NNW,347,0.0,0.0,95,0.00,CLR,,0.62,WeatherDisplay:10.37,2013-02-11 05:10:00,
2013-02-10 20:15:00,31.7,30.4,29.43,NNW,347,0.0,0.0,95,0.00,CLR,,0.62,WeatherDisplay:10.37,2013-02-11 05:15:00,
2013-02-10 20:20:00,31.7,30.4,29.43,NNW,347,0.0,0.0,95,0.00,CLR,,0.62,WeatherDisplay:10.37,2013-02-11 05:20:00,
2013-02-10 20:25:00,31.6,30.3,29.43,NNW,347,0.0,0.0,95,0.00,CLR,,0.62,WeatherDisplay:10.37,2013-02-11 05:25:00,
2013-02-10 20:30:00,31.6,30.3,29.43,NNW,347,0.0,0.0,95,0.00,CLR,,0.62,WeatherDisplay:10.37,2013-02-11 05:30:00,
2013-02-10 20:35:00,31.5,30.2,29.43,NNW,347,0.0,0.0,95,0.00,CLR,,0.62,WeatherDisplay:10.37,2013-02-11 05:35:00,
2013-02-10 20:40:00,31.5,30.2,29.43,NNW,347,0.0,0.0,95,0.00,CLR,,0.62,WeatherDisplay:10.37,2013-02-11 05:40:00,
2013-02-10 20:45:00,31.5,30.2,29.43,NNW,347,0.0,0.0,95,0.00,CLR,,0.62,WeatherDisplay:10.37,2013-02-11 05:45:00,
2013-02-10 20:50:00,31.5,30.2,29.43,NNW,347,0.0,0.0,95,0.00,CLR,,0.62,WeatherDisplay:10.37,2013-02-11 05:50:00,
2013-02-10 20:55:00,31.5,30.2,29.43,NNW,347,0.0,0.0,95,0.00,CLR,,0.62,WeatherDisplay:10.37,2013-02-11 05:55:00,
2013-02-10 21:00:00,31.4,30.1,29.43,NNW,347,0.0,0.0,95,0.00,CLR,,0.62,WeatherDisplay:10.37,2013-02-11 06:00:00,
2013-02-10 21:05:00,31.4,30.1,29.43,NNW,348,0.0,0.0,95,0.00,CLR,,0.62,WeatherDisplay:10.37,2013-02-11 06:05:00,
2013-02-10 21:10:00,31.4,30.1,29.43,NNW,348,0.0,0.0,95,0.00,CLR,,0.62,WeatherDisplay:10.37,2013-02-11 06:10:00,
2013-02-10 21:15:00,31.4,30.1,29.43,NNW,348,0.0,0.0,95,0.00,CLR,,0.62,WeatherDisplay:10.37,2013-02-11 06:15:00,
2013-02-10 21:20:00,31.4,30.1,29.43,NNW,348,0.0,0.0,95,0.00,CLR,,0.62,WeatherDisplay:10.37,2013-02-11 06:20:00,
2013-02-10 21:25:00,31.4,30.1,29.43,NNW,348,0.0,0.0,95,0.00,CLR,,0.62,WeatherDisplay:10.37,2013-02-11 06:25:00,
2013-02-10 21:30:00,31.3,30.0,29.43,NNW,348,0.0,0.0,95,0.00,CLR,,0.62,WeatherDisplay:10.37,2013-02-11 06:30:00,
2013-02-10 21:35:00,31.3,30.0,29.43,NNW,348,0.0,0.0,95,0.00,CLR,,0.62,WeatherDisplay:10.37,2013-02-11 06:35:00,
2013-02-10 21:40:00,31.3,30.0,29.43,NNW,348,0.0,0.0,95,0.00,CLR,,0.62,WeatherDisplay:10.37,2013-02-11 06:40:00,
2013-02-10 21:45:00,31.3,30.0,29.43,NNW,348,0.0,0.0,95,0.00,CLR,,0.62,WeatherDisplay:10.37,2013-02-11 06:45:00,
2013-02-10 21:50:00,31.3,30.0,29.44,NNW,348,0.0,0.0,95,0.00,CLR,,0.62,WeatherDisplay:10.37,2013-02-11 06:50:00,
2013-02-10 21:55:00,31.4,30.1,29.44,NNW,348,0.0,0.0,95,0.00,CLR,,0.62,WeatherDisplay:10.37,2013-02-11 06:55:00,
2013-02-10 22:00:00,31.4,30.1,29.44,NNW,348,0.0,0.0,95,0.00,CLR,,0.62,WeatherDisplay:10.37,2013-02-11 07:00:00,
2013-02-10 22:05:00,31.5,30.2,29.44,NNW,348,0.0,0.0,95,0.00,CLR,,0.62,WeatherDisplay:10.37,2013-02-11 07:05:00,
2013-02-10 22:10:00,31.5,30.2,29.44,NNW,348,0.0,0.0,95,0.00,CLR,,0.62,WeatherDisplay:10.37,2013-02-11 07:10:00,
2013-02-10 22:15:00,31.5,30.2,29.44,NNW,348,0.0,0.0,95,0.00,CLR,,0.62,WeatherDisplay:10.37,2013-02-11 07:15:00,
2013-02-10 22:20:00,31.5,30.2,29.44,NNW,348,0.0,0.0,95,0.00,CLR,,0.62,WeatherDisplay:10.37,2013-02-11 07:20:00,
2013-02-10 22:25:00,31.5,30.2,29.44,NNW,348,0.0,0.0,95,0.00,CLR,,0.62,WeatherDisplay:10.37,2013-02-11 07:25:00,
2013-02-10 22:30:00,31.5,30.2,29.44,NNW,348,0.0,0.0,95,0.00,CLR,,0.62,WeatherDisplay:10.37,2013-02-11 07:30:00,
2013-02-10 22:35:00,31.5,30.2,29.44,NNW,348,0.0,0.0,95,0.00,CLR,,0.62,WeatherDisplay:10.37,2013-02-11 07:35:00,
2013-02-10 22:40:00,31.5,30.2,29.44,NNW,348,0.0,0.0,95,0.00,CLR,,0.62,WeatherDisplay:10.37,2013-02-11 07:40:00,
2013-02-10 22:45:00,31.5,30.2,29.44,NNW,348,0.0,0.0,95,0.00,CLR,,0.62,WeatherDisplay:10.37,2013-02-11 07:45:00,
2013-02-10 22:50:00,31.4,30.1,29.44,NNW,348,0.0,0.0,95,0.00,CLR,,0.62,WeatherDisplay:10.37,2013-02-11 07:50:00,
2013-02-10 22:55:00,31.4,30.1,29.44,NNW,348,0.0,0.0,95,0.00,CLR,,0.62,WeatherDisplay:10.37,2013-02-11 07:55:00,
2013-02-10 23:00:00,31.4,30.1,29.44,NNW,348,0.0,0.0,95,0.00,CLR,,0.62,WeatherDisplay:10.37,2013-02-11 08:00:00,
2013-02-10 23:05:00,31.4,30.1,29.44,NNW,348,0.0,0.0,95,0.00,CLR,,0.62,WeatherDisplay:10.37,2013-02-11 08:05:00,
2013-02-10 23:10:00,31.4,30.1,29.45,NNW,348,0.0,0.0,95,0.00,CLR,,0.62,WeatherDisplay:10.37,2013-02-11 08:10:00,
2013-02-10 23:15:00,31.4,30.1,29.44,North,349,0.0,0.0,95,0.00,CLR,,0.62,WeatherDisplay:10.37,2013-02-11 08:15:00,
2013-02-10 23:20:00,31.4,30.1,29.44,North,349,0.0,0.0,95,0.00,CLR,,0.62,WeatherDisplay:10.37,2013-02-11 08:20:00,
2013-02-10 23:25:00,31.4,30.1,29.44,NNW,348,0.0,0.0,95,0.00,CLR,,0.62,WeatherDisplay:10.37,2013-02-11 08:25:00,
2013-02-10 23:30:00,31.4,30.1,29.45,North,349,0.0,0.0,95,0.00,CLR,,0.62,WeatherDisplay:10.37,2013-02-11 08:30:00,
2013-02-10 23:35:00,31.4,30.1,29.45,NNW,348,0.0,0.0,95,0.00,CLR,,0.62,WeatherDisplay:10.37,2013-02-11 08:35:00,
2013-02-10 23:40:00,31.3,30.0,29.45,North,349,0.0,0.0,95,0.00,CLR,,0.62,WeatherDisplay:10.37,2013-02-11 08:40:00,
2013-02-10 23:45:00,31.4,30.1,29.45,North,349,0.0,0.0,95,0.00,CLR,,0.62,WeatherDisplay:10.37,2013-02-11 08:45:00,
2013-02-10 23:50:00,31.3,30.0,29.45,North,349,0.0,0.0,95,0.00,CLR,,0.62,WeatherDisplay:10.37,2013-02-11 08:50:00,
2013-02-10 23:55:00,31.3,30.0,29.45,North,349,0.0,0.0,95,0.00,CLR,,0.62,WeatherDisplay:10.37,2013-02-11 08:55:00,